Find Starlink 34310

NORAD ID: 64210 Int'l Des: 2025-117 Owner: SPXS Country: US Constellation: starlink operational
LEOCIRCULAR

当前视图

正在加载3D地球...

关于 Starlink 34310

正在加载描述...

即将过境

Passes for default location (London). Set your location on the main map for personalized predictions.

高度历史

Loading altitude history...

两行轨道根数

1 64210U 25117H 26150.95037119 .00080763 00000-0 27146-2 0 9994
2 64210 53.1603 17.2676 0001316 115.8330 244.2807 15.30139192 57120
Epoch: May 30, 2026 • Age: 19 hours

当前状态

高度 483.7 km
速度 7.62 km/s
星下点 -26.60°S, 159.56°W
发射日期 May 31, 2025
运行时间 0.9 years
类型 internet

技术详情

分类 Payload
质量 575.00 kg
干质量 530.00 kg
总质量 575.00 kg
长度 0.30 m
直径 4.10 m
跨度 29.00 m
形状 Box + pan
制造商 SPXS
平台类型 Starlink V2MO
阶段状态 In Orbit
所有者/国家 SPXS/US

Most Searched